www.pogodaiklimat.ru

Погода и климат >> Архив погоды >> Россия >> Ненецкий АО >> Мыс Константиновский


ПОГОДА на Мысе Константиновском

  • Прогноз погоды на Мысе Константиновском
  • Монитор погоды на Мысе Константиновском

АРХИВ ПОГОДЫ на Мысе Константиновском

Время (UTC), дата Ветер
(напр.,м/с)
 
Видим.   Явления Облачность Т
(С)
Тd
(С)
f
(%)
Тe
(С)
Тes
(С)
Комфортность P
(гПа)
Po
(гПа)
Тmin
(С)
Tmax
(С)
R
(мм)
R24
(мм)
S
(см)
21 9.06 С 5
{10}
10 км 9/9 600 м
[Sc]
+2.3 -2.3 72 -3 -3 1016.0 1015.2
00 10.06 СВ 2 10 км 9/9 600 м
[Sc]
+2.3 -2.6 70 -1 -1 1016.5 1015.7
03 10.06 СВ 2 10 км 10/10 300 м
[Sc]
+2.2 -1.2 78 -1 -1 1016.1 1015.3 +2.1
06 10.06 В 3 10 км 9/9 300 м
[Sc]
+2.8 -0.5 79 -1 -0 1014.6 1013.8
09 10.06 СВ 5 20 км 9/9 600 м
[Sc]
+2.8 +0.1 82 -2 -2 1013.2 1012.4
12 10.06 В 7 10 км слаб. ливневой дождь 10/10 300 м
[Cb cap]
+2.5 +0.4 86 -4 -4 1011.6 1010.8
15 10.06 В 5
{10}
10 км слаб. ливневой дождь 10/10 300 м
[Cb cap]
+1.6 +0.8 94 -4 -4 1010.7 1009.9 +3.0 3
18 10.06 В 5 10 км {ливн. осадки} 10/10 600 м
[Sc]
+1.8 +1.0 94 -4 -4 1009.7 1008.9
21 10.06 В 5 10 км слаб. ливневой дождь 10/10 300 м
[Cb cap]
+1.8 +1.3 96 -4 -4 1009.2 1008.4
00 11.06 В 4 10 км слаб. ливневой дождь 10/10 300 м
[Cb cap]
+1.6 +1.1 96 -4 -4 1008.5 1007.7
03 11.06 В 4 10 км слаб. ливневой дождь 10/10 300 м
[Cb cap]
+1.7 +1.2 96 -4 -4 1008.4 1007.6 +1.4 1
06 11.06 В 4 10 км {ливн. осадки} 10/10 300 м
[Sc]
+2.8 +1.2 89 -2 -2 1008.5 1007.7
09 11.06 СВ 5 10 км 9/9 600 м
[Sc]
+3.5 +1.7 88 -2 -1 1009.3 1008.5
12 11.06 СВ 5 20 км 4/4 600 м
[Sc]
+3.2 +0.6 83 -2 0 1009.9 1009.1
15 11.06 С 6 10 км 9/9 300 м
[Sc]
+2.7 -1.2 75 -3 -3 1010.5 1009.7 +4.0 0.3
18 11.06 С 5 10 км 9/9 600 м
[Sc]
+2.1 -2.5 72 -3 -3 1010.1 1009.3
21 11.06 С 6
{10}
10 км в посл. час ливневой снег 9/9 300 м
[Cb cap]
+2.0 -0.5 83 -4 -4 1009.1 1008.3
00 12.06 СЗ 9-12
{13}
10 км {ливн. осадки} 9/9 300 м
[Sc]
+2.5 -0.5 81 -4 -4 1007.7 1006.9
03 12.06 С 9-12
{12}
10 км 8/8 300 м
[Sc]
+2.1 -0.7 82 -5 -5 1006.9 1006.1 +1.1 0.0
06 12.06 СЗ 9-13
{13}
10 км 9/9 300 м
[Sc]
+2.5 -0.8 79 -4 -4 1006.8 1006.0
09 12.06 СЗ 10-12
{14}
10 км 9/9 300 м
[Sc]
+2.4 +0.3 86 -5 -5 1007.1 1006.3
12 12.06 СЗ 11-12
{14}
10 км 9/9 300 м
[Sc]
+2.4 -0.6 81 -5 -5 1007.4 1006.6
15 12.06 СЗ 10-13
{17}
10 км 9/9 300 м
[Sc]
+2.0 -0.5 83 -5 -5 1008.0 1007.2 +2.8
18 12.06 СЗ 12-15
{17}
10 км 9/9 300 м
[Cb cap]
+2.2 -0.3 84 -6 -6 1007.4 1006.6
21 12.06 СЗ 12-15
{17}
10 км 10/10 300 м
[Sc]
+2.1 -0.7 82 -6 -6 1006.3 1005.5
00 13.06 СЗ 15-19
{22}
10 км {ливн. осадки} 10/10 300 м
[Cb cap]
+2.1 -0.1 85 -7 -7 1005.7 1004.9
03 13.06 С 14-17
{22}
10 км {ливн. осадки} 10/10 300 м
[Cb cap]
+1.0 -0.1 92 -8 -8 1006.1 1005.3 +0.8 0.4
06 13.06 С 12-15
{20}
10 км {ливн. осадки} 10/10 300 м
[Sc]
+1.1 +0.3 94 -7 -7 1007.9 1007.1
09 13.06 СЗ 12-15
{18}
10 км слаб. ливневой снег 9/9 300 м
[Cb cap]
+1.4 +0.6 94 -7 -7 1008.8 1008.0
12 13.06 СЗ 12-16
{16}
4000 м слаб. ливневой снег 10/10 300 м
[Cb cap]
+1.7 +0.3 90 -7 -7 1009.4 1008.6
15 13.06 С 13-16
{18}
4000 м слаб. ливневой снег 9/9 300 м
[Cb cap]
+1.7 +0.6 92 -7 -7 1009.4 1008.6 +1.8 0.9
18 13.06 С 12-15
{16}
10 км {ливн. осадки} 9/9 300 м
[Cb cap]
+1.8 +0.5 91 -6 -6 1009.2 1008.4
21 13.06 С 10-13
{16}
10 км 9/9 300 м
[Cb cap]
+1.8 -0.4 85 -6 -6 1008.9 1008.1
00 14.06 СЗ 9-12
{13}
10 км 9/9 300 м
[Cb cap]
+1.4 -1.1 83 -6 -6 1009.0 1008.2
03 14.06 СЗ 8
{12}
10 км 10/10 300 м
[Sc]
+1.2 -0.8 87 -6 -6 1009.0 1008.2 +1.1 0.3
06 14.06 СЗ 8
{11}
10 км 10/10 300 м
[Sc]
+1.6 +0.5 92 -6 -6 1008.8 1008.0
09 14.06 СЗ 9-12
{13}
10 км 9/9 300 м
[Sc]
+2.5 +0.1 84 -5 -4 1008.6 1007.8
12 14.06 З 10-12
{14}
10 км 9/9 300 м
[Sc]
+3.6 +0.7 81 -3 -3 1008.1 1007.3
15 14.06 З 10-12
{13}
10 км 10/10 300 м
[Cb cap]
+3.2 +1.7 90 -4 -4 1005.9 1005.1 +3.7
18 14.06 З 10-12
{13}
10 км слаб. ливневой дождь 10/10 300 м
[Cb cap]
+3.2 +2.4 94 -4 -4 1003.0 1002.2
21 14.06 СЗ 10-14
{14}
10 км слаб. ливневой дождь 10/10 300 м
[Cb cap]
+2.9 +1.9 93 -4 -4 1001.1 1000.3
00 15.06 СЗ 9-12
{14}
10 км слаб. ливневой дождь 10/10 300 м
[Cb cap]
+1.5 +0.7 94 -6 -6 1000.1 999.3
03 15.06 СЗ 10-13
{14}
10 км {ливн. осадки} 9/9 300 м
[Cb cap]
+2.2 +0.3 87 -5 -5 1000.0 999.2 +1.4 3
06 15.06 СЗ 11-14
{15}
10 км {ливн. осадки} 9/9 300 м
[Cb cap]
+1.8 +0.2 89 -6 -6 1000.8 1000.0
09 15.06 СЗ 9-12
{14}
10 км 8/8 300 м
[Sc]
+2.5 -0.5 81 -4 -4 1001.8 1001.0
12 15.06 СЗ 10-12
{13}
10 км 8/8 300 м
[Sc]
+2.8 -0.8 77 -4 -4 1002.6 1001.8
15 15.06 СЗ 8
{12}
10 км 10/10 300 м
[Sc]
+2.7 +0.9 88 -4 -4 1002.7 1001.9 +3.2
18 15.06 З 9-11
{12}
10 км 10/10 300 м
[Sc]
+3.3 +2.0 91 -4 -4 1000.6 999.8
21 15.06 СЗ 9-10
{11}
10 км слаб. ливневой дождь 10/10 300 м
[Cb cap]
+3.2 +2.4 94 -4 -4 998.4 997.6
00 16.06 З 8
{11}
10 км слаб. ливневой дождь 10/10 300 м
[Cb cap]
+3.3 +2.5 94 -3 -3 997.2 996.4
03 16.06 З 8
{10}
10 км слаб. ливневой дождь 10/10 300 м
[Cb cap]
+3.9 +3.2 95 -3 -3 995.8 995.0 +2.4 0.6
06 16.06 З 8
{11}
10 км слаб. ливневой дождь 10/10 300 м
[Cb cap]
+4.0 +3.0 93 -2 -2 994.5 993.7
09 16.06 СЗ 8
{11}
10 км слаб. ливневой дождь 10/10 300 м
[Cb cap]
+3.3 +2.5 94 -3 -3 994.5 993.7
12 16.06 З 8-10
{12}
10 км {ливн. осадки} 9/9 300 м
[Cb cap]
+3.8 +1.8 87 -3 -2 994.8 994.1
15 16.06 З 10-12
{13}
10 км слаб. ливневой дождь 10/10 300 м
[Cb cap]
+2.6 +1.8 94 -5 -5 994.7 993.9 +4.2 5
18 16.06 З 11-13
{14}
10 км слаб. ливневой дождь 10/10 300 м
[Cb cap]
+2.5 +1.2 91 -5 -5 994.2 993.4

 

Местоположение метеостанции Мыс Константиновский (Ненецкий АО, Россия): широта 68.55 долгота 55.50 высота над уровнем моря 7 м.

В архиве по умолчанию представлена погода на Мысе Константиновском за последнюю неделю. Архивные данные за месяц целиком и за предыдущие месяцы, начиная с января 2011 года, Вы можете получить, выбрав интересующий диапазон дат из раскрывающегося списка и нажав кнопку "Ввод!".


*Определитесь, кто Вы:
робот инопланетянин человек

Внимание! Время в таблицах - всемирное. Для получения местного времени необходимо прибавить поправку, которая равна 3 ч.

Смотрите также архив погоды в соседних городах и на ближайших метеорологических станциях:

Погода в Ходоварихе (Ненецкий АО, Россия) (82 км)
Погода в Варандее (Ненецкий АО, Россия) (106 км)
Погода в Нарьян-Маре (Ненецкий АО, Россия) (145 км)
Погода в Хорей-Вере (Ненецкий АО, Россия) (163 км)
Погода в Сенгейском Шаре (Ненецкий АО, Россия) (173 км)
Погода на Мысе Белый Нос (Ненецкий АО, Россия) (220 км)
Погода в Коткино (Ненецкий АО, Россия) (250 км)
Погода в Бугрино (Ненецкий АО, Россия) (251 км)
Погода в Имени Федорова (Ненецкий АО, Россия) (253 км)
Погода в Харуте (Ненецкий АО, Россия) (254 км)

Пояснения к столбцам:

Ветер - указаны скорость ветра в м/с - средняя за 10 мин, порывы в срок и между сроками (в фигурных скобках) и направление, откуда дует ветер: С - северный, СВ - северо-восточный, В - восточный, ЮВ - юго-восточный, Ю - южный, ЮЗ - юго-западный, З - западный, СЗ - северо-западный.
Видимость - горизонтальная дальность видимости в метрах или километрах. При видимости от 1 до 10 км при отсутствии осадков обычно наблюдается дымка, при ухудшении видимости до 1 км и менее - туман. В сухую погоду видимость может ухудшаться дымом, пылью или мглою.
Явления - указаны атмосферные явления, наблюдавшиеся в срок или в последний час перед сроком; фигурными скобками обозначены явления, наблюдавшиеся между сроками (за 1-3 часа до срока); квадратными скобками обозначены град или гололедные отложения с указанием их диаметра в мм.
Облачность - указаны через наклонную черту общая и нижняя облачность в баллах и высота нижней границы облаков в метрах; квадратными скобками обозначены формы облаков: Ci - перистые, Cs - перисто-слоистые, Cc - перисто-кучевые, Ac - высококучевые, As - высокослоистые, Sc - слоисто-кучевые, Ns - слоисто-дождевые, Cu - кучевые, Cb - кучево-дождевые. Подробнее классификацию облаков см. в Атласе облаков (PDF).
T - Температура воздуха - температура, измеренная на высоте 2 м над землей.
Td - Температура точки росы - температура, при понижении до которой содержащийся в воздухе водяной пар достигнет насыщения.
f - Относительная влажность воздуха - влажноcть воздуха, измеренная на высоте 2 м над землей.
Te - Эффективная температура - температура, которую ощущает одетый по сезону человек в тени. Характеристика душности погоды. При расчете учитывается влияние влажности воздуха и скорости ветра на теплоощущения человека.
Tes - Эффективная температура на солнце - температура, которую ощущает человек, с поправкой на солнечный нагрев. Характеристика знойности погоды. Зависит от высоты солнца над горизонтом, облачности и скорости ветра. Ночью, в пасмурную погоду, а также при ветре 12 м/с и более поправка равна нулю.
P - Атмосферное давление - приведенное к уровню моря атмосферное давление.
Po - Атмосферное давление - измеренное на уровне метеостанции атмосферное давление.
Tmin - Минимальная температура - минимум температуры воздуха на высоте 2 м над землей.
Tmax - Максимальная температура - максимум температуры воздуха на высоте 2 м над землей.
R - Количество осадков - Количество выпавших осадков за период времени, мм. При наведении курсора мыши на число - период времени, за который выпало указанное количество осадков.
R24 - Количество осадков - Количество выпавших осадков за 24 часа, мм.
S - Снежный покров - Высота снежного покрова, см. При наведении курсора мыши на число - состояние снежного покрова и степень покрытия местности в баллах.